DELTA 1 DEB, 42563

Orbit data source: Space-Track

DELTA 1 DEB, 42563 is space debris in SSO originally from a launch on Sun, 23 Jul 1972 UTC launched from the Air Force Western Test Range (AFWTR). Debris objects in space refer to the collection of defunct objects orbiting the Earth. Examples of debris include non-operational satellites, rocket bodies, and fragments generated from explosions, collisions, or faulty payload assembly.

Loading next visibility...
Identifier
42563, 1972-058JW
Orbit
SSO
Last TLE update
2 days ago
Origin
Manufacturer
Unknown
Mission
Spacecraft
Bus & Motor
Unknown
Mass
Unknown
Launch date (UTC)
1972-07-23 (53 years ago)
Launch vehicle
Unknown
Launch site
Air Force Western Test Range (AFWTR)
Object type
Payload
Rocket body
Debris
Shape & HBR
Unknown
Radar Cross Section
Small (<0.1 m²)

Expand to show TLE details & history

TLE from 2 days ago
0 DELTA 1 DEB
1 42563U 72058JW  25190.62725817  .00000322  00000-0  30587-3 0  9990
2 42563  98.7948 330.4981 0248135 252.4233 104.9674 13.74769120576637
Epoch: 2025-07-09T15:03Z
TLE epoch observation values (Epoch: 2025-07-09T15:03:15.105Z)
Latitude
0.00001°
Longitude
176.87998°
Altitude
1,036.718 km
Speed
7.308 km/s
True Right ascension
22h 01m 59s
True Declination
0° 00' 00"
Sunlit
Object was in full shadow at epoch
Visualization orbit readout
Latitude
-63.16542°
Longitude
-163.80987°
Altitude
881.608 km
Speed
7.474 km/s
Apparent Right ascension
06h 15m 05s
Apparent Declination
-74° 27' 40"
Sunlit
Object is in full shadow
Visualization observer readout
Local Sidereal Time
20:57:29
Azimuth
164.012° S
Elevation
-50.735°
Doppler factor
1
Orbital elements
Apogee altitude
1,162.294 km
Perigee altitude
797.145 km
Semi-major axis
7,357.857 km
Eccentricity
0.02481
Inclination
98.7948°
RAAN
330.4981°
Arg. of periapsis
252.4233°
True anomaly
Unknown
Mean anomaly
104.9674°
Eccentric anomaly
Unknown
Mean motion
3.43887 °/min
Orbital period
104.69 mins
BSTAR
0.00030587
Loading maneuver chart data...
Loading SW <> Apogee altitude chart data...

DELTA 1 DEB Visibility forecast

Observer location: undefined°, undefined°

Span
Click to sort rows by Start time (UTC) header in descending order
Start Az.
Max El. time (UTC)
Max El. Az.
Max El.
End time (UTC)
End Az.
12 mins2025-07-11 09:04:54.226Z157.461° SSE2025-07-11 09:10:54.226Z64.007° ENE44.288°2025-07-11 09:16:54.226Z349.964° N
7 mins2025-07-11 10:51:54.226Z241.361° WSW2025-07-11 10:54:54.226Z271.769° WNW17.692°2025-07-11 10:58:54.226Z308.977° NW
10 mins2025-07-11 21:49:54.226Z26.425° NE2025-07-11 21:54:54.226Z113.422° SE40.006°2025-07-11 21:59:54.226Z176.929° S
8 mins2025-07-11 23:33:54.226Z338.866° N2025-07-11 23:36:54.226Z305.716° NW22.408°2025-07-11 23:41:54.226Z249.738° W
9 mins2025-07-12 07:50:54.226Z102.404° ESE2025-07-12 07:54:54.226Z61.62° ENE21.7°2025-07-12 07:59:54.226Z13.822° NNE
|